Location: Dana
(41.8364°N, 106.7042°W)
Time: 02:37:49
(UTC+00:00)

Transit 4A - Pass Details

Date: 19 May 2026
Orbit: 860 x 980 km, 66.8° (Epoch: 6 June)

Event Time Altitude Azimuth Distance (km) Brightness Sun altitude
Rises 23:24:59 0° 326° (NW) 3,689 11.4 31.3°
Reaches altitude 10° 23:27:35 10° 323° (NW) 2,738 11.0 30.8°
Maximum altitude 23:33:52 59° 246° (WSW) 1,121 9.5 29.6°
Drops below altitude 10° 23:40:02 10° 168° (SSE) 2,688 10.3 28.5°
Sets 23:42:35 0° 165° (SSE) 3,616 10.8 28.0°
